When you browse on this site, cookies collect data to enhance your experience and personalize the content and advertising you see.
Visit our Privacy Policy to learn more. By continuing to use the site, you agree to this use of cookies and data.
  • In Portugal
  • List of Countries
  • For 7 days
  • Water Temperature
  • Satellite Maps
  • Weather Map
  • Weather Widgets
  • user-avatar
    Login

    Hourly Weather Lyman (Krasnyj Liman)

    Today, 11 December, Tuesday

    Time Temperature Precipitation Wind Pressure Humidity
    00:00 +1°C° 0.4 mm 3 mps 746 mmHg 97%
    01:00 +1°C° 0.2 mm 3 mps 746 mmHg 97%
    02:00 +2°C° 0.2 mm 2 mps 746 mmHg 97%
    03:00 +3°C° 0 mm 1 mps 746 mmHg 98%
    04:00 +3°C° 0.1 mm 1 mps 746 mmHg 98%
    05:00 +3°C° 0.1 mm 1 mps 746 mmHg 97%
    06:00 +3°C° 0.1 mm 1 mps 747 mmHg 97%
    07:00 +3°C° 0 mm 1 mps 747 mmHg 97%
    08:00 +2°C° 0 mm 2 mps 747 mmHg 97%
    09:00 +2°C° 0 mm 2 mps 747 mmHg 97%
    10:00 +2°C° 0 mm 2 mps 747 mmHg 97%
    11:00 +3°C° 0 mm 2 mps 747 mmHg 98%
    12:00 +2°C° 0 mm 3 mps 747 mmHg 98%
    13:00 +2°C° 0 mm 3 mps 747 mmHg 97%
    14:00 +1°C° 0 mm 4 mps 746 mmHg 97%
    15:00 +1°C° 0 mm 4 mps 746 mmHg 96%
    16:00 0°C° 0.5 mm 4 mps 746 mmHg 96%
    17:00 0°C° 0.5 mm 4 mps 747 mmHg 95%
    18:00 0°C° 0.5 mm 4 mps 747 mmHg 94%
    19:00 0°C° 1.1 mm 5 mps 747 mmHg 94%
    20:00 -1°C° 1.1 mm 6 mps 746 mmHg 94%
    21:00 -1°C° 1.1 mm 6 mps 746 mmHg 94%
    22:00 -1°C° 0.8 mm 6 mps 745 mmHg 94%
    23:00 -1°C° 0.8 mm 7 mps 745 mmHg 93%

    Tomorrow, 12 December, Wednesday

    Time Temperature Precipitation Wind Pressure Humidity
    00:00 0°C° 0.8 mm 7 mps 745 mmHg 93%
    01:00 0°C° 0.2 mm 7 mps 744 mmHg 93%
    02:00 0°C° 0.2 mm 7 mps 744 mmHg 93%
    03:00 0°C° 0.2 mm 7 mps 744 mmHg 93%
    04:00 0°C° 0.1 mm 7 mps 743 mmHg 93%
    05:00 0°C° 0.1 mm 7 mps 743 mmHg 93%
    06:00 +2°C° 0.1 mm 7 mps 742 mmHg 93%
    07:00 +2°C° 0.1 mm 7 mps 742 mmHg 92%
    08:00 +2°C° 0.1 mm 7 mps 742 mmHg 91%
    09:00 +2°C° 0.1 mm 7 mps 742 mmHg 90%
    10:00 +2°C° 0.1 mm 7 mps 742 mmHg 89%
    11:00 +2°C° 0.1 mm 7 mps 742 mmHg 89%
    12:00 +2°C° 0.1 mm 7 mps 742 mmHg 88%
    13:00 +2°C° 0.2 mm 7 mps 742 mmHg 88%
    14:00 +2°C° 0.2 mm 6 mps 743 mmHg 88%
    15:00 +2°C° 0.2 mm 6 mps 743 mmHg 88%
    16:00 +2°C° 0.3 mm 6 mps 743 mmHg 88%
    17:00 +2°C° 0.3 mm 5 mps 744 mmHg 88%
    18:00 +1°C° 0.3 mm 5 mps 744 mmHg 88%
    19:00 +1°C° 0.2 mm 5 mps 745 mmHg 88%
    20:00 +1°C° 0.2 mm 5 mps 745 mmHg 88%
    21:00 +1°C° 0.2 mm 5 mps 745 mmHg 87%
    22:00 0°C° 0 mm 5 mps 746 mmHg 87%
    23:00 0°C° 0 mm 5 mps 746 mmHg 86%

    Day after tomorrow, 13 December, Thursday

    Time Temperature Precipitation Wind Pressure Humidity
    00:00 0°C° 0 mm 5 mps 747 mmHg 86%
    01:00 0°C° 0 mm 5 mps 748 mmHg 85%
    02:00 0°C° 0 mm 5 mps 748 mmHg 84%
    03:00 0°C° 0 mm 4 mps 749 mmHg 84%
    04:00 -1°C° 0 mm 4 mps 749 mmHg 83%
    05:00 -1°C° 0 mm 4 mps 749 mmHg 83%
    06:00 -1°C° 0 mm 4 mps 750 mmHg 83%
    07:00 -1°C° 0 mm 4 mps 751 mmHg 83%
    08:00 -1°C° 0 mm 4 mps 751 mmHg 83%
    09:00 -2°C° 0 mm 4 mps 752 mmHg 83%
    10:00 -1°C° 0 mm 4 mps 752 mmHg 81%
    11:00 -1°C° 0 mm 4 mps 753 mmHg 78%
    12:00 0°C° 0 mm 5 mps 753 mmHg 76%
    13:00 0°C° 0 mm 4 mps 753 mmHg 74%
    14:00 0°C° 0 mm 4 mps 754 mmHg 73%
    15:00 +2°C° 0 mm 3 mps 754 mmHg 71%
    16:00 +1°C° 0 mm 3 mps 754 mmHg 74%
    17:00 0°C° 0 mm 3 mps 755 mmHg 77%
    18:00 0°C° 0 mm 3 mps 755 mmHg 79%
    19:00 0°C° 0 mm 3 mps 755 mmHg 81%
    20:00 0°C° 0 mm 3 mps 756 mmHg 82%
    21:00 -1°C° 0 mm 4 mps 756 mmHg 83%
    22:00 -1°C° 0 mm 4 mps 756 mmHg 84%
    23:00 -1°C° 0 mm 3 mps 756 mmHg 86%

    14 December, Friday

    Time Temperature Precipitation Wind Pressure Humidity
    00:00 -1°C° 0 mm 3 mps 757 mmHg 87%
    01:00 -1°C° 0 mm 3 mps 757 mmHg 87%
    02:00 -1°C° 0 mm 3 mps 757 mmHg 87%
    03:00 -1°C° 0 mm 3 mps 757 mmHg 88%
    04:00 -1°C° 0 mm 3 mps 757 mmHg 88%
    05:00 -1°C° 0 mm 3 mps 757 mmHg 88%
    06:00 -1°C° 0 mm 3 mps 757 mmHg 89%
    07:00 -1°C° 0 mm 3 mps 757 mmHg 89%
    08:00 -1°C° 0 mm 3 mps 758 mmHg 89%
    09:00 -1°C° 0 mm 3 mps 758 mmHg 89%
    10:00 0°C° 0 mm 3 mps 758 mmHg 86%
    11:00 +1°C° 0 mm 3 mps 758 mmHg 83%
    12:00 +2°C° 0 mm 3 mps 758 mmHg 79%
    13:00 +2°C° 0 mm 3 mps 758 mmHg 80%
    14:00 +2°C° 0 mm 3 mps 758 mmHg 80%
    15:00 +3°C° 0 mm 2 mps 758 mmHg 81%
    16:00 +2°C° 0 mm 2 mps 759 mmHg 84%
    17:00 +1°C° 0 mm 2 mps 759 mmHg 87%
    18:00 -1°C° 0 mm 2 mps 759 mmHg 90%
    19:00 -1°C° 0 mm 2 mps 759 mmHg 90%
    20:00 -1°C° 0 mm 2 mps 759 mmHg 90%
    21:00 -1°C° 0 mm 2 mps 760 mmHg 91%
    22:00 -1°C° 0 mm 2 mps 760 mmHg 91%
    23:00 -1°C° 0 mm 2 mps 760 mmHg 91%

    15 December, Saturday

    Time Temperature Precipitation Wind Pressure Humidity
    00:00 -1°C° 0 mm 2 mps 760 mmHg 91%
    01:00 -1°C° 0 mm 2 mps 760 mmHg 91%
    02:00 -2°C° 0 mm 2 mps 760 mmHg 91%
    03:00 0°C° 0 mm 1 mps 760 mmHg 92%
    04:00 0°C° 0 mm 1 mps 760 mmHg 91%
    05:00 -2°C° 0 mm 2 mps 760 mmHg 91%
    06:00 -2°C° 0 mm 2 mps 761 mmHg 91%
    07:00 -2°C° 0 mm 2 mps 761 mmHg 91%
    08:00 -2°C° 0 mm 2 mps 761 mmHg 90%
    09:00 -2°C° 0 mm 2 mps 761 mmHg 90%
    10:00 -1°C° 0 mm 2 mps 762 mmHg 87%
    11:00 +1°C° 0 mm 2 mps 762 mmHg 84%
    12:00 +1°C° 0 mm 2 mps 762 mmHg 81%
    13:00 +1°C° 0 mm 2 mps 762 mmHg 82%
    14:00 +1°C° 0 mm 2 mps 762 mmHg 82%
    15:00 +1°C° 0 mm 2 mps 762 mmHg 83%
    16:00 +1°C° 0 mm 2 mps 763 mmHg 85%
    17:00 -1°C° 0 mm 2 mps 763 mmHg 87%
    18:00 -1°C° 0 mm 2 mps 763 mmHg 89%
    19:00 -1°C° 0 mm 2 mps 763 mmHg 89%
    20:00 -1°C° 0 mm 2 mps 764 mmHg 89%
    21:00 -1°C° 0 mm 2 mps 764 mmHg 89%
    22:00 -1°C° 0 mm 2 mps 764 mmHg 89%
    23:00 -1°C° 0 mm 2 mps 764 mmHg 89%

    16 December, Sunday

    Time Temperature Precipitation Wind Pressure Humidity
    00:00 -1°C° 0 mm 3 mps 764 mmHg 89%
    01:00 -2°C° 0 mm 3 mps 764 mmHg 89%
    02:00 -2°C° 0 mm 3 mps 764 mmHg 89%
    03:00 -2°C° 0 mm 3 mps 764 mmHg 90%
    04:00 -2°C° 0 mm 3 mps 764 mmHg 90%
    05:00 -2°C° 0 mm 3 mps 764 mmHg 90%
    06:00 -4°C° 0 mm 3 mps 764 mmHg 90%
    07:00 -4°C° 0 mm 3 mps 765 mmHg 89%
    08:00 -4°C° 0 mm 3 mps 765 mmHg 88%
    09:00 -4°C° 0 mm 4 mps 765 mmHg 87%
    10:00 -3°C° 0 mm 4 mps 765 mmHg 84%
    11:00 -2°C° 0 mm 4 mps 765 mmHg 81%
    12:00 -2°C° 0 mm 4 mps 765 mmHg 77%
    13:00 -2°C° 0 mm 4 mps 765 mmHg 77%
    14:00 -2°C° 0 mm 4 mps 765 mmHg 76%
    15:00 -2°C° 0 mm 4 mps 765 mmHg 76%
    16:00 -2°C° 0 mm 4 mps 765 mmHg 78%
    17:00 -4°C° 0 mm 5 mps 765 mmHg 80%
    18:00 -4°C° 0 mm 5 mps 765 mmHg 83%
    19:00 -4°C° 0 mm 5 mps 765 mmHg 83%
    20:00 -5°C° 0 mm 5 mps 765 mmHg 83%
    21:00 -5°C° 0 mm 5 mps 765 mmHg 83%
    22:00 -5°C° 0 mm 5 mps 765 mmHg 82%
    23:00 -5°C° 0 mm 5 mps 765 mmHg 82%
    Show more